AUA73U LQSA-LOWW

Flight info

Callsign AUA73U
Flight time 0h 50m
Altitude 36000
Route BOSNA DCT IRDIV DCT NOVLO DCT ZAG DCT OBUTI OBUTI2W
Aircraft A320/M-SDE3FGHIRWY/LB1

Departure

Time 2026-05-05 16:05
Airport Sarajevo International Airport (LQSA)

Arrival

Time 2026-05-05 16:56
Airport Vienna International Airport (LOWW)
Time Latitude Longitude Altitude Speed Heading
2026-05-05 15:37 43.82560 18.33562 1686 ft 0 kts 27°
2026-05-05 15:58 43.82556 18.33559 1690 ft 3 kts 27°
2026-05-05 15:59 43.82538 18.33546 1691 ft 3 kts 31°
2026-05-05 15:59 43.82526 18.33536 1691 ft 3 kts 36°
2026-05-05 15:59 43.82512 18.33519 1686 ft 3 kts 57°
2026-05-05 15:59 43.82506 18.33499 1686 ft 3 kts 109°
2026-05-05 16:00 43.82507 18.33493 1686 ft 0 kts 117°
2026-05-05 16:01 43.82506 18.33497 1687 ft 2 kts 117°
2026-05-05 16:02 43.82498 18.33520 1691 ft 3 kts 117°
2026-05-05 16:02 43.82473 18.33586 1688 ft 12 kts 117°
2026-05-05 16:02 43.82420 18.33728 1689 ft 20 kts 117°
2026-05-05 16:02 43.82350 18.33915 1693 ft 22 kts 117°
2026-05-05 16:03 43.82284 18.34091 1699 ft 19 kts 116°
2026-05-05 16:03 43.82225 18.34251 1704 ft 18 kts 117°
2026-05-05 16:03 43.82169 18.34402 1708 ft 17 kts 117°
2026-05-05 16:03 43.82114 18.34547 1712 ft 16 kts 117°
2026-05-05 16:04 43.82028 18.34629 1715 ft 15 kts 173°
2026-05-05 16:04 43.81935 18.34570 1714 ft 15 kts 220°
2026-05-05 16:04 43.81962 18.34474 1712 ft 7 kts 295°
2026-05-05 16:04 43.81968 18.34456 1713 ft 16 kts 295°
2026-05-05 16:05 43.82153 18.33956 1704 ft 96 kts 297°
2026-05-05 16:05 43.82562 18.32869 1685 ft 155 kts 297°
2026-05-05 16:05 43.83118 18.31398 2014 ft 175 kts 296°
2026-05-05 16:05 43.83804 18.30027 2851 ft 178 kts 321°
2026-05-05 16:06 43.84968 18.29395 3567 ft 184 kts 342°
2026-05-05 16:06 43.86243 18.28949 3995 ft 203 kts 343°
2026-05-05 16:06 43.87727 18.28446 4316 ft 229 kts 343°
2026-05-05 16:06 43.89350 18.27878 4791 ft 251 kts 342°
2026-05-05 16:07 43.91086 18.27252 5413 ft 264 kts 342°
2026-05-05 16:07 43.92873 18.26597 6362 ft 265 kts 342°
2026-05-05 16:07 43.94661 18.25930 7245 ft 268 kts 342°
2026-05-05 16:07 43.96541 18.25502 7894 ft 284 kts 352°
2026-05-05 16:08 43.98557 18.25220 8502 ft 297 kts 353°
2026-05-05 16:08 43.98777 18.25192 8592 ft 298 kts 353°
2026-05-05 16:08 43.99085 18.25153 8717 ft 298 kts 353°
2026-05-05 16:08 44.01174 18.24895 9560 ft 304 kts 354°
2026-05-05 16:09 44.03290 18.24638 10404 ft 307 kts 354°
2026-05-05 16:09 44.05380 18.24016 11210 ft 309 kts 339°
2026-05-05 16:09 44.07313 18.22677 11907 ft 317 kts 324°
2026-05-05 16:09 44.09014 18.20593 12161 ft 337 kts 309°
2026-05-05 16:10 44.10595 18.18061 12564 ft 353 kts 309°
2026-05-05 16:10 44.12189 18.15512 13263 ft 358 kts 309°
2026-05-05 16:10 44.13828 18.12901 13964 ft 363 kts 309°
2026-05-05 16:10 44.15480 18.10282 14608 ft 366 kts 309°
2026-05-05 16:11 44.17186 18.07582 15402 ft 366 kts 309°
2026-05-05 16:11 44.22225 17.99609 17574 ft 370 kts 308°
2026-05-05 16:12 44.23930 17.96904 18268 ft 372 kts 308°
2026-05-05 16:12 44.27380 17.91424 19440 ft 376 kts 309°
2026-05-05 16:13 44.32590 17.83127 21071 ft 384 kts 309°
2026-05-05 16:13 44.34341 17.80323 21661 ft 385 kts 308°
2026-05-05 16:13 44.36119 17.77503 22247 ft 387 kts 310°
2026-05-05 16:14 44.40435 17.72839 23253 ft 398 kts 324°
2026-05-05 16:14 44.45092 17.68551 24125 ft 403 kts 324°
2026-05-05 16:15 44.49805 17.64189 24914 ft 409 kts 323°
2026-05-05 16:15 44.54576 17.59757 25719 ft 414 kts 323°
2026-05-05 16:16 44.59408 17.55261 26482 ft 419 kts 323°
2026-05-05 16:16 44.64302 17.50700 27191 ft 426 kts 323°
2026-05-05 16:17 44.69266 17.46063 27908 ft 431 kts 323°
2026-05-05 16:17 44.71769 17.43722 28271 ft 434 kts 323°
2026-05-05 16:18 44.76819 17.38995 28994 ft 439 kts 323°
2026-05-05 16:18 44.79366 17.36610 29330 ft 441 kts 323°
2026-05-05 16:18 44.84504 17.31785 30019 ft 445 kts 323°
2026-05-05 16:19 44.87086 17.29354 30238 ft 449 kts 323°
2026-05-05 16:19 44.89691 17.26896 30490 ft 451 kts 323°
2026-05-05 16:19 44.94930 17.21946 31055 ft 454 kts 323°
2026-05-05 16:20 45.00188 17.16978 31707 ft 454 kts 323°
2026-05-05 16:20 45.05401 17.12045 32540 ft 450 kts 323°
2026-05-05 16:21 45.10573 17.07134 33411 ft 445 kts 323°
2026-05-05 16:22 45.18199 16.99855 34584 ft 439 kts 323°
2026-05-05 16:22 45.23236 16.95032 35245 ft 436 kts 323°
2026-05-05 16:23 45.28254 16.90234 35857 ft 434 kts 323°
2026-05-05 16:23 45.30757 16.87838 35964 ft 432 kts 323°
2026-05-05 16:23 45.35722 16.83060 35979 ft 430 kts 323°
2026-05-05 16:24 45.40675 16.78291 35979 ft 430 kts 323°
2026-05-05 16:25 45.48096 16.71121 35983 ft 430 kts 323°
2026-05-05 16:25 45.55518 16.63933 35986 ft 430 kts 323°
2026-05-05 16:26 45.65363 16.54374 35994 ft 429 kts 322°
2026-05-05 16:27 45.70289 16.49573 36001 ft 428 kts 322°
2026-05-05 16:27 45.75202 16.44772 36005 ft 427 kts 322°
2026-05-05 16:28 45.80101 16.39975 36005 ft 427 kts 322°
2026-05-05 16:28 45.85009 16.35155 35991 ft 428 kts 322°
2026-05-05 16:29 45.90377 16.31372 35994 ft 436 kts 340°
2026-05-05 16:29 45.96417 16.30222 35988 ft 442 kts 354°
2026-05-05 16:30 46.02566 16.29809 35984 ft 442 kts 354°
2026-05-05 16:30 46.08722 16.29378 35966 ft 444 kts 354°
2026-05-05 16:31 46.14891 16.28951 35961 ft 444 kts 354°
2026-05-05 16:31 46.21078 16.28545 35959 ft 445 kts 354°
2026-05-05 16:32 46.24176 16.28343 35821 ft 447 kts 354°
2026-05-05 16:32 46.27278 16.28134 35567 ft 447 kts 354°
2026-05-05 16:32 46.30387 16.27921 35308 ft 448 kts 354°
2026-05-05 16:32 46.33498 16.27711 35063 ft 448 kts 354°
2026-05-05 16:33 46.36618 16.27496 34815 ft 449 kts 354°
2026-05-05 16:33 46.39714 16.26971 34565 ft 447 kts 347°
2026-05-05 16:33 46.42785 16.26235 34345 ft 448 kts 347°
2026-05-05 16:33 46.45859 16.25507 34105 ft 448 kts 348°
2026-05-05 16:34 46.48947 16.24779 33848 ft 449 kts 348°
2026-05-05 16:34 46.52032 16.24052 33375 ft 450 kts 348°
2026-05-05 16:34 46.55109 16.23324 32795 ft 445 kts 348°
2026-05-05 16:34 46.58152 16.22603 32209 ft 442 kts 348°
2026-05-05 16:35 46.61167 16.21891 31634 ft 439 kts 347°
2026-05-05 16:35 46.64178 16.21176 31070 ft 436 kts 348°
2026-05-05 16:35 46.67159 16.20465 30506 ft 433 kts 348°
2026-05-05 16:35 46.70125 16.19758 29943 ft 431 kts 347°
2026-05-05 16:36 46.73073 16.19053 29348 ft 428 kts 348°
2026-05-05 16:36 46.75998 16.18354 28805 ft 424 kts 348°
2026-05-05 16:36 46.78891 16.17660 28283 ft 419 kts 347°
2026-05-05 16:36 46.81754 16.16972 27748 ft 416 kts 347°
2026-05-05 16:37 46.84600 16.16290 27229 ft 412 kts 348°
2026-05-05 16:37 46.87410 16.15618 26729 ft 408 kts 348°
2026-05-05 16:37 46.90198 16.14952 26253 ft 404 kts 348°
2026-05-05 16:37 46.92958 16.14290 25773 ft 400 kts 347°
2026-05-05 16:38 46.95689 16.13632 25315 ft 396 kts 348°
2026-05-05 16:38 46.98396 16.12976 24861 ft 393 kts 348°
2026-05-05 16:38 47.00971 16.12351 24422 ft 390 kts 348°
2026-05-05 16:38 47.03637 16.11704 23964 ft 387 kts 347°
2026-05-05 16:39 47.06287 16.11061 23503 ft 385 kts 348°
2026-05-05 16:39 47.08959 16.10413 22984 ft 383 kts 348°
2026-05-05 16:39 47.11572 16.09780 22526 ft 379 kts 348°
2026-05-05 16:39 47.14166 16.09151 22057 ft 376 kts 347°
2026-05-05 16:40 47.16744 16.08566 21611 ft 377 kts 352°
2026-05-05 16:40 47.19393 16.08625 21325 ft 383 kts
2026-05-05 16:40 47.22052 16.08863 21081 ft 383 kts
2026-05-05 16:40 47.24685 16.09112 20832 ft 384 kts
2026-05-05 16:41 47.27341 16.09373 20573 ft 381 kts
2026-05-05 16:41 47.29982 16.09636 20323 ft 380 kts
2026-05-05 16:41 47.32528 16.09892 20087 ft 383 kts
2026-05-05 16:41 47.35217 16.10162 19832 ft 382 kts
2026-05-05 16:42 47.37821 16.10425 19589 ft 379 kts
2026-05-05 16:42 47.40453 16.10689 19348 ft 380 kts
2026-05-05 16:42 47.43088 16.10951 19097 ft 379 kts
2026-05-05 16:42 47.45704 16.11209 18858 ft 375 kts
2026-05-05 16:43 47.48311 16.11464 18624 ft 375 kts
2026-05-05 16:43 47.50917 16.11724 18392 ft 375 kts
2026-05-05 16:43 47.52675 16.11901 18229 ft 373 kts
2026-05-05 16:43 47.55246 16.12160 17818 ft 370 kts
2026-05-05 16:44 47.57810 16.12415 17327 ft 369 kts
2026-05-05 16:44 47.60368 16.12669 16841 ft 368 kts
2026-05-05 16:44 47.62921 16.12926 16365 ft 367 kts
2026-05-05 16:44 47.65462 16.13185 15893 ft 367 kts
2026-05-05 16:45 47.68003 16.13442 15423 ft 366 kts
2026-05-05 16:45 47.70512 16.13694 14942 ft 365 kts
2026-05-05 16:45 47.73062 16.13950 14627 ft 359 kts
2026-05-05 16:45 47.75550 16.14202 14225 ft 357 kts
2026-05-05 16:46 47.78025 16.14453 13747 ft 357 kts
2026-05-05 16:46 47.80501 16.14702 13255 ft 356 kts
2026-05-05 16:46 47.82971 16.14950 12773 ft 355 kts
2026-05-05 16:46 47.85395 16.15194 12309 ft 353 kts
2026-05-05 16:47 47.87839 16.15441 11829 ft 351 kts
2026-05-05 16:47 47.90280 16.15692 11350 ft 350 kts
2026-05-05 16:47 47.92702 16.15937 10872 ft 349 kts
2026-05-05 16:47 47.95124 16.16178 10379 ft 348 kts
2026-05-05 16:48 47.97521 16.16418 10116 ft 341 kts
2026-05-05 16:48 47.99848 16.16655 9994 ft 329 kts
2026-05-05 16:48 48.02091 16.16884 9855 ft 315 kts
2026-05-05 16:48 48.04246 16.17103 9308 ft 308 kts
2026-05-05 16:49 48.06377 16.17321 8618 ft 306 kts
2026-05-05 16:49 48.08504 16.17541 7902 ft 306 kts
2026-05-05 16:49 48.10616 16.17759 7182 ft 304 kts
2026-05-05 16:49 48.12732 16.17975 6476 ft 303 kts
2026-05-05 16:50 48.14786 16.18188 6228 ft 287 kts
2026-05-05 16:50 48.16719 16.18382 6083 ft 273 kts
2026-05-05 16:50 48.18557 16.18505 5925 ft 256 kts
2026-05-05 16:50 48.20213 16.19298 5681 ft 250 kts 34°
2026-05-05 16:51 48.21355 16.21195 5223 ft 244 kts 71°
2026-05-05 16:51 48.21651 16.23599 4909 ft 232 kts 101°
2026-05-05 16:51 48.21173 16.25843 4628 ft 224 kts 121°
2026-05-05 16:51 48.20489 16.27949 4316 ft 226 kts 122°
2026-05-05 16:52 48.19804 16.30069 4022 ft 226 kts 123°
2026-05-05 16:52 48.19126 16.32173 3716 ft 226 kts 123°
2026-05-05 16:52 48.18446 16.34283 3419 ft 226 kts 123°
2026-05-05 16:52 48.17773 16.36375 3107 ft 219 kts 122°
2026-05-05 16:53 48.17127 16.38380 2822 ft 207 kts 122°
2026-05-05 16:53 48.16528 16.40242 2563 ft 190 kts 123°
2026-05-05 16:53 48.15990 16.41913 2340 ft 166 kts 124°
2026-05-05 16:53 48.15519 16.43371 2080 ft 146 kts 124°
2026-05-05 16:54 48.15098 16.44671 1873 ft 133 kts 127°
2026-05-05 16:54 48.14702 16.45887 1703 ft 128 kts 128°
2026-05-05 16:54 48.14316 16.47072 1533 ft 126 kts 127°
2026-05-05 16:54 48.13929 16.48257 1358 ft 129 kts 126°
2026-05-05 16:55 48.13539 16.49462 1196 ft 127 kts 124°
2026-05-05 16:55 48.13152 16.50669 1018 ft 127 kts 125°
2026-05-05 16:55 48.12785 16.51822 840 ft 125 kts 126°
2026-05-05 16:55 48.12417 16.52932 699 ft 125 kts 123°
2026-05-05 16:56 48.12060 16.54037 621 ft 116 kts 123°
2026-05-05 16:56 48.11775 16.54880 612 ft 71 kts 115°
2026-05-05 16:56 48.11622 16.55362 625 ft 46 kts 116°
2026-05-05 16:56 48.11470 16.55829 620 ft 56 kts 116°
2026-05-05 16:57 48.11291 16.56381 621 ft 62 kts 116°
2026-05-05 16:57 48.11131 16.56872 619 ft 44 kts 115°
2026-05-05 16:57 48.11106 16.57166 618 ft 22 kts 46°
2026-05-05 16:57 48.11214 16.57258 621 ft 15 kts 24°
2026-05-05 16:58 48.11252 16.57288 609 ft 1 kts 28°
2026-05-05 16:58 48.11280 16.57310 609 ft 6 kts 24°
2026-05-05 16:58 48.11317 16.57333 622 ft 7 kts 23°
2026-05-05 16:58 48.11399 16.57387 620 ft 20 kts 24°
2026-05-05 16:59 48.11520 16.57461 609 ft 17 kts
2026-05-05 16:59 48.11628 16.57420 609 ft 16 kts 343°
2026-05-05 16:59 48.11727 16.57380 620 ft 14 kts 344°
2026-05-05 16:59 48.11818 16.57330 618 ft 14 kts 316°
2026-05-05 17:00 48.11853 16.57202 616 ft 13 kts 278°
2026-05-05 17:00 48.11874 16.57082 617 ft 11 kts 296°
2026-05-05 17:00 48.11906 16.56983 622 ft 10 kts 296°
2026-05-05 17:00 48.11936 16.56891 609 ft 10 kts 296°
2026-05-05 17:01 48.11964 16.56805 621 ft 9 kts 296°
2026-05-05 17:01 48.11989 16.56725 614 ft 8 kts 288°
2026-05-05 17:01 48.11965 16.56683 615 ft 5 kts 205°
2026-05-05 17:01 48.11933 16.56659 621 ft 0 kts 206°